Hourly Data Report for October 20, 2017

All times are specified in Local Standard Time (LST). Add 1 hour to adjust for Daylight Saving Time where and when it is observed.

CLYDE RIVER A
NUNAVUT

70°29'09.000" N
68°31'01.000" W
26.50 m
2400804
71090
YCY

Download Data

Hourly Data (October 2017)
Hourly Data Report for October 20, 2017
Temp Definition
°C
Dew Point Temp Definition
°C
Rel Hum Definition
%
Wind Dir Definition
10's deg

Wind Spd Definition
km/h
Visibility Definition
km
Stn Press Definition
kPa
Hmdx Definition


Wind Chill Definition


Weather Definition


TIME
00:00 Legend Double Dagger -7.9 -9.3 90 30 22 16.1 100.64   -16 Snow
01:00 Legend Double Dagger -8.4 -9.9 89 30 24 16.1 100.64   -17 Snow
02:00 Legend Double Dagger -7.4 -8.5 92 30 22 1.0 100.67   -15 Snow
03:00 Legend Double Dagger -7.2 -8.3 92 31 26 6.4 100.67   -15 Snow
04:00 Legend Double Dagger -6.5 -7.7 91 30 24 2.0 100.71   -14 Snow
05:00 Legend Double Dagger -6.4 -7.5 92 31 26 6.4 100.73   -14 Snow
06:00 Legend Double Dagger -6.2 -8.0 87 26 17 16.1 100.76   -12 Snow
07:00 Legend Double Dagger -6.5 -8.0 89 29 24 16.1 100.76   -14 LegendNANA
08:00 Legend Double Dagger -6.7 -8.4 88 30 22 16.1 100.77   -14 LegendNANA
09:00 Legend Double Dagger -6.1 -7.6 89 30 22 16.1 100.80   -13 Snow
10:00 Legend Double Dagger -7.6 -8.7 92 29 18 16.1 100.81   -14 LegendNANA
11:00 Legend Double Dagger -8.0 -9.2 91 32 22 16.1 100.81   -16 LegendNANA
12:00 Legend Double Dagger -6.7 -7.9 91 33 28 16.1 100.83   -15 LegendNANA
13:00 Legend Double Dagger -5.7 -6.9 91 31 21 1.0 100.88   -13 Moderate Snow
14:00 Legend Double Dagger -5.8 -6.8 93 33 32 1.2 100.92   -14 Snow
15:00 Legend Double Dagger -6.0 -7.4 90 33 30 1.6 100.99   -14 Snow
16:00 Legend Double Dagger -7.4 -9.5 85 31 22 16.1 101.05   -15 LegendNANA
17:00 Legend Double Dagger -7.7 -9.7 86 32 26 16.1 101.08   -16 Snow
18:00 Legend Double Dagger -7.7 -10.0 84 31 22 16.1 101.12   -15 LegendNANA
19:00 Legend Double Dagger -8.2 -10.6 83 31 22 16.1 101.14   -16 LegendNANA
20:00 Legend Double Dagger -9.9 -12.0 85 28 18 16.1 101.15   -17 LegendNANA
21:00 Legend Double Dagger -11.3 -13.1 87 30 21 16.1 101.16   -20 LegendNANA
22:00 Legend Double Dagger -12.0 -13.5 89 30 24 16.1 101.16   -21 Snow
23:00 Legend Double Dagger -11.6 -13.6 85 30 28 16.1 101.19   -21 LegendNANA

Notes on Data Quality.

Legend

  • E = Estimated
  • M = Missing
  • NA = Not Available
  • ‡ = Partner data that is not subject to review by the National Climate Archives
Date modified: